Главная страница
METAR-TAF:

METAR-TAF

Аэропорты :

Шлeзвиг-Jagel, Германия

широта: 54-28N, долгота: 009-31E, высота над уровнем моря: 22 м

Текущие метеонаблюдения

Эта сводка был подготовлена 1 час и 1 минут назад, в 23:20 UTC
Ветер 5 Узел от восточно-северо-восточный
Температура 4°C
Влажность 70%
Давление 1029 hPa
Видимость: 7000 м

METAR: ETNS 202320Z AUTO 06005KT 7000 // ////// 04/M01 Q1029 ///

Время: 02:21 (00:21 UTC)


TAF: отсутствует

Метеонаблюдения и прогнозы для более 4000 аэропортов (сводки METAR и TAF).

Имеющиеся станции представлены на карте желтыми и красными точками.

Чтобы увидеть название станции, наведите на нее мышь.

Затем щелкните, чтобы увидеть метеонаблюдения и метеопрогнозы.

Управление картой: чтобы увеличить масштаб, щелкните зеленые кнопки с черным крестиком; чтобы уменьшить масштаб, щелкните зеленую кнопку с тире; для просмотра соседних карт щелкайте зеленые стрелки.


METAR-TAF: